RYR100T EIDW-EIDW

Flight info

Callsign RYR100T
Flight time 0h 9m
Altitude 22000
Route BAMLI
Aircraft B738/M-SDE2E3FGHIRWXY/LB1

Departure

Time 2026-05-03 21:31
Airport Dublin Airport (EIDW)

Arrival

Time 2026-05-03 21:41
Airport Dublin Airport (EIDW)
Time Latitude Longitude Altitude Speed Heading
2026-05-03 21:24 54.32271 -6.98151 22959 ft 431 kts 130°
2026-05-03 21:25 54.30201 -6.94359 22967 ft 431 kts 130°
2026-05-03 21:25 54.28154 -6.90614 22962 ft 430 kts 130°
2026-05-03 21:25 54.26118 -6.86899 22741 ft 423 kts 130°
2026-05-03 21:25 54.24109 -6.83245 21577 ft 420 kts 130°
2026-05-03 21:26 54.22154 -6.79690 20441 ft 415 kts 131°
2026-05-03 21:26 54.20174 -6.76096 19353 ft 408 kts 131°
2026-05-03 21:26 54.18246 -6.72649 18257 ft 403 kts 133°
2026-05-03 21:26 54.16175 -6.69432 17173 ft 398 kts 140°
2026-05-03 21:27 54.13863 -6.66943 16115 ft 394 kts 152°
2026-05-03 21:27 54.11356 -6.65299 15069 ft 389 kts 162°
2026-05-03 21:27 54.08711 -6.64306 14011 ft 384 kts 169°
2026-05-03 21:27 54.06088 -6.63683 13067 ft 379 kts 172°
2026-05-03 21:28 54.03498 -6.63234 12396 ft 366 kts 173°
2026-05-03 21:28 54.00960 -6.62855 11788 ft 372 kts 174°
2026-05-03 21:28 53.98398 -6.62481 11183 ft 366 kts 173°
2026-05-03 21:28 53.95871 -6.62106 10809 ft 353 kts 173°
2026-05-03 21:29 53.93502 -6.61744 10656 ft 336 kts 173°
2026-05-03 21:29 53.91202 -6.61385 10517 ft 319 kts 173°
2026-05-03 21:29 53.89058 -6.61044 10383 ft 305 kts 173°
2026-05-03 21:29 53.86980 -6.60710 10276 ft 290 kts 173°
2026-05-03 21:30 53.85010 -6.60392 10199 ft 276 kts 173°
2026-05-03 21:30 53.83114 -6.60086 10082 ft 265 kts 172°
2026-05-03 21:30 53.81307 -6.59816 9798 ft 262 kts 174°
2026-05-03 21:30 53.79469 -6.59701 9435 ft 262 kts 177°
2026-05-03 21:31 53.77650 -6.59676 9123 ft 261 kts 178°
2026-05-03 21:31 53.75828 -6.59654 8792 ft 259 kts 177°
2026-05-03 21:31 53.74031 -6.59814 8519 ft 258 kts 186°
2026-05-03 21:31 53.72276 -6.60353 8267 ft 258 kts 190°
2026-05-03 21:32 53.70495 -6.60983 8008 ft 257 kts 190°
2026-05-03 21:32 53.68745 -6.61562 7757 ft 256 kts 189°
2026-05-03 21:32 53.66998 -6.62103 7502 ft 255 kts 188°
2026-05-03 21:32 53.65236 -6.62622 7244 ft 254 kts 188°
2026-05-03 21:33 53.63487 -6.63122 6984 ft 253 kts 188°
2026-05-03 21:33 53.61755 -6.63618 6713 ft 252 kts 188°
2026-05-03 21:33 53.60009 -6.64123 6433 ft 252 kts 188°
2026-05-03 21:33 53.58289 -6.64620 6189 ft 251 kts 188°
2026-05-03 21:34 53.56559 -6.65117 5923 ft 250 kts 187°
2026-05-03 21:34 53.54840 -6.65610 5673 ft 249 kts 187°
2026-05-03 21:34 53.53138 -6.66096 5419 ft 247 kts 187°
2026-05-03 21:34 53.51439 -6.66582 5155 ft 244 kts 187°
2026-05-03 21:35 53.49777 -6.67048 4892 ft 241 kts 185°
2026-05-03 21:35 53.48148 -6.67140 4798 ft 227 kts 167°
2026-05-03 21:35 53.46796 -6.66110 4792 ft 207 kts 133°
2026-05-03 21:35 53.45949 -6.64179 4578 ft 204 kts 111°
2026-05-03 21:36 53.45580 -6.61934 4380 ft 196 kts 94°
2026-05-03 21:36 53.45429 -6.59686 4084 ft 196 kts 92°
2026-05-03 21:36 53.45294 -6.57420 3797 ft 196 kts 92°
2026-05-03 21:36 53.45164 -6.55115 3513 ft 195 kts 91°
2026-05-03 21:37 53.45045 -6.52909 3241 ft 183 kts 91°
2026-05-03 21:37 53.44936 -6.50863 2992 ft 169 kts 90°
2026-05-03 21:37 53.44834 -6.48958 2761 ft 158 kts 90°
2026-05-03 21:37 53.44738 -6.47165 2558 ft 146 kts 90°
2026-05-03 21:38 53.44651 -6.45524 2340 ft 138 kts 90°
2026-05-03 21:38 53.44568 -6.43919 2157 ft 139 kts 89°
2026-05-03 21:38 53.44479 -6.42287 1959 ft 138 kts 89°
2026-05-03 21:38 53.44394 -6.40686 1770 ft 136 kts 90°
2026-05-03 21:39 53.44308 -6.39107 1601 ft 138 kts 89°
2026-05-03 21:39 53.44224 -6.37503 1387 ft 138 kts 89°
2026-05-03 21:39 53.44137 -6.35906 1204 ft 135 kts 92°
2026-05-03 21:39 53.44051 -6.34322 1051 ft 142 kts 90°
2026-05-03 21:40 53.43973 -6.32662 833 ft 144 kts 93°
2026-05-03 21:40 53.43879 -6.30985 614 ft 142 kts 94°
2026-05-03 21:40 53.43791 -6.29367 428 ft 138 kts 96°
2026-05-03 21:40 53.43699 -6.27785 267 ft 131 kts 92°
2026-05-03 21:41 53.43629 -6.26417 223 ft 87 kts 95°
2026-05-03 21:41 53.43587 -6.25739 215 ft 44 kts 95°
2026-05-03 21:41 53.43538 -6.25270 211 ft 31 kts 114°
2026-05-03 21:41 53.43453 -6.25013 210 ft 19 kts 137°
2026-05-03 21:42 53.43385 -6.25119 210 ft 18 kts 274°
2026-05-03 21:42 53.43397 -6.25339 211 ft 18 kts 275°
2026-05-03 21:42 53.43408 -6.25555 213 ft 18 kts 275°
2026-05-03 21:42 53.43327 -6.25633 214 ft 17 kts 155°
2026-05-03 21:43 53.43207 -6.25560 213 ft 18 kts 157°
2026-05-03 21:43 53.43084 -6.25468 212 ft 19 kts 157°
2026-05-03 21:43 53.42957 -6.25373 212 ft 20 kts 148°
2026-05-03 21:43 53.42966 -6.25213 211 ft 15 kts 87°
2026-05-03 21:44 53.42956 -6.25036 212 ft 15 kts 95°
2026-05-03 21:44 53.42948 -6.24871 214 ft 11 kts 96°
2026-05-03 21:44 53.42942 -6.24774 214 ft 4 kts 96°
2026-05-03 21:44 53.42941 -6.24752 215 ft 0 kts 96°
2026-05-03 21:45 53.42940 -6.24751 215 ft 0 kts 96°
2026-05-03 21:45 53.42938 -6.24709 215 ft 3 kts 95°
2026-05-03 21:46 53.42938 -6.24704 215 ft 0 kts 95°